Flag for Germany Weather past 2 weeks in Oranienburg, Brandenburg, Germany

Now
69 °F

Scattered clouds.


Feels Like: 69 °F
Forecast: 46 / 73 °F
Wind: 5 mph from Northwest

Location: Berlin-Tegel

Current Time: Aug 27, 2014 at 3:10:16 PM

Latest Report: Aug 27, 2014 at 2:00 PM


Visibility: 31 mi

Pressure: 29.96 "Hg

Humidity: 36%

Dew point: 41 °F

Location of OranienburgLocation

Historic Weather in Oranienburg — Graph

°F

Oranienburg temperature yesterday

Maximum temperature yesterday: 67 °F (at 4:00 PM)
Minimum temperature yesterday: 52 °F (at 7:00 AM)
Average temperature yesterday: 59 °F

Past Weeks' High & Low Weather Summary

 TemperatureHumidityPressure
High76 °F (Aug 13, 4:00 PM)95% (Aug 14, 6:00 AM)30.03 "Hg (Aug 14, 6:00 AM)
Low45 °F (Aug 27, 6:00 AM)33% (Aug 22, 7:00 PM)29.60 "Hg (Aug 18, 4:00 PM)
Average60 °F64%29.86 "Hg
* Reported Aug 12 2:00 PM — Aug 27 2:00 PM, Oranienburg, Weather by CustomWeather, © 2014

Note: Actual official high and low records may vary slightly from our data, if they occured in-between our weather recording intervals... More about our weather records

Advertising

Oranienburg weather history for previous 24 hours

 ConditionsComfort  
Time TempWeatherWind HumidityBarometerVisibility
2:00 PM
Aug 27
69 °FScattered clouds.5 mph36%29.96 "Hg31 mi
1:00 PM67 °FScattered clouds.6 mph41%29.96 "Hg31 mi
12:00 PM67 °FPassing clouds.5 mph45%29.95 "Hg31 mi
11:00 AM64 °FPassing clouds.5 mph58%29.94 "Hg25 mi
10:00 AM60 °FPassing clouds.3 mph71%29.93 "Hg19 mi
9:00 AM56 °FPassing clouds.2 mph82%29.92 "Hg16 mi
8:00 AM52 °FPassing clouds.1 mph91%29.90 "Hg12 mi
7:00 AM46 °FFog.1 mph94%29.88 "Hg19 mi
6:00 AM45 °FFog.1 mph93%29.86 "Hg28 mi
5:00 AM47 °FFog.1 mph91%29.86 "Hg28 mi
4:00 AM46 °FPassing clouds.1 mph90%29.85 "Hg28 mi
3:00 AM48 °FFog.1 mph90%29.84 "Hg28 mi
2:00 AM48 °FFog.No wind88%29.83 "Hg31 mi
1:00 AM50 °FPassing clouds.No wind85%29.83 "Hg28 mi
12:00 AM52 °FPassing clouds.No wind74%29.81 "Hg25 mi
11:00 PM
Aug 26
53 °FPassing clouds.1 mph63%29.80 "Hg28 mi
10:00 PM57 °FPassing clouds.1 mph54%29.79 "Hg28 mi
9:00 PM61 °FPassing clouds.1 mph48%29.78 "Hg28 mi
8:00 PM63 °FOvercast.2 mph46%29.77 "Hg25 mi
7:00 PM65 °FOvercast.3 mph44%29.76 "Hg25 mi
6:00 PM66 °FOvercast.2 mph42%29.75 "Hg28 mi
5:00 PM67 °FOvercast.2 mph34%29.75 "Hg28 mi
4:00 PM67 °FPartly sunny.2 mph44%29.75 "Hg28 mi
3:00 PM65 °FOvercast.2 mph45%29.74 "Hg25 mi
Weather by CustomWeather, © 2014

See weather overviewHow to use our weather pages